OH5GWF-1 Weather Reports


Display with metric or nautical units.
time (UTC)temp
F
wind
direction
speed
MPH
gust
MPH
rain 1hr
in
rain 24hr
in
rain mn
in
humidity
%
barometer
mb
20260903140955 64 329 0.0 0.0 0.00 0.00 0.00 66 1004.0
20260903140253 65 277 2.0 6.0 0.00 0.00 0.00 65 1003.8
20260903135549 66 308 1.0 1.0 0.00 0.00 0.00 64 1003.9
20260903134847 66 310 1.0 2.0 0.00 0.00 0.00 65 1004.0
20260903134156 66 315 0.0 0.0 0.00 0.00 0.00 64 1004.0
20260903133454 67 315 0.0 0.0 0.00 0.00 0.00 61 1003.9
20260903132752 69 301 0.0 2.0 0.00 0.00 0.00 59 1003.9
20260903132050 70 257 0.0 1.0 0.00 0.00 0.00 61 1003.9
20260903131347 65 276 1.0 1.0 0.00 0.00 0.00 64 1004.0
20260903130646 66 337 1.0 2.0 0.00 0.00 0.00 62 1004.1
20260903125956 67 319 0.0 1.0 0.00 0.00 0.00 61 1004.1
20260903125254 69 357 0.0 0.0 0.00 0.00 0.00 59 1004.2
20260903124550 71 86 1.0 0.0 0.00 0.00 0.00 55 1004.2
20260903123849 73 147 1.0 1.0 0.00 0.00 0.00 52 1004.2
20260903123147 76 316 5.0 7.0 0.00 0.00 0.00 48 1004.2
20260903122457 82 356 1.0 3.0 0.00 0.00 0.00 45 1004.3
20260903121756 81 356 2.0 3.0 0.00 0.00 0.00 45 1004.3
20260903121052 81 316 1.0 7.0 0.00 0.00 0.00 46 1004.3
20260903120350 81 323 1.0 5.0 0.00 0.00 0.00 47 1004.4
20260903115648 78 23 3.0 5.0 0.00 0.00 0.00 48 1004.2
20260903114957 77 268 3.0 3.0 0.00 0.00 0.00 50 1004.4
20260903114255 74 285 1.0 3.0 0.00 0.00 0.00 54 1004.4
20260903113552 73 298 1.0 2.0 0.00 0.00 0.00 54 1004.4
20260903112850 73 270 2.0 3.0 0.00 0.00 0.00 53 1004.4
20260903112149 71 248 3.0 3.0 0.00 0.00 0.00 60 1004.6
20260903111447 71 248 3.0 3.0 0.00 0.00 0.00 60 1004.6
20260903110746 71 248 1.0 0.0 0.00 0.00 0.00 60 1004.6
20260903110057 71 248 1.0 0.0 0.00 0.00 0.00 60 1004.6
20260903105355 70 248 1.0 2.0 0.00 0.00 0.00 62 1004.6
20260903104653 66 248 1.0 3.0 0.00 0.00 0.00 64 1004.7
20260903103950 66 248 2.0 3.0 0.00 0.00 0.00 63 1004.8
20260903103248 66 248 2.0 6.0 0.00 0.00 0.00 64 1004.7
20260903102558 66 248 2.0 3.0 0.00 0.00 0.00 65 1004.7
20260903101855 66 248 2.0 2.0 0.00 0.00 0.00 65 1004.7
20260903101154 67 248 2.0 3.0 0.00 0.00 0.00 64 1004.8
20260903100451 67 248 2.0 3.0 0.00 0.00 0.00 65 1005.0
20260903095749 67 248 2.0 3.0 0.00 0.00 0.00 65 1004.9
20260903095047 67 248 1.0 6.0 0.00 0.00 0.00 66 1005.0
20260903094355 67 248 3.0 6.0 0.00 0.00 0.00 66 1005.0
20260903093653 67 248 5.0 8.0 0.00 0.00 0.00 68 1005.1
20260903092951 66 248 2.0 6.0 0.00 0.00 0.00 68 1005.2
20260903092301 66 248 2.0 6.0 0.00 0.00 0.00 69 1005.2
20260903091546 67 248 2.0 2.0 0.00 0.00 0.00 69 1005.1
20260903090856 67 248 2.0 3.0 0.00 0.00 0.00 68 1005.2
20260903090154 68 248 1.0 5.0 0.00 0.00 0.00 67 1005.3
20260903085452 69 248 2.0 2.0 0.00 0.00 0.00 68 1005.2
20260903084751 69 248 3.0 5.0 0.00 0.00 0.00 69 1005.2
20260903084049 69 248 2.0 6.0 0.00 0.00 0.00 74 1005.1
20260903083347 64 248 2.0 3.0 0.00 0.00 0.00 77 1005.1
20260903082657 64 248 1.0 1.0 0.00 0.00 0.00 76 1005.1
20260903081954 66 248 1.0 3.0 0.00 0.00 0.00 74 1005.2
20260903081253 68 248 1.0 2.0 0.00 0.00 0.00 74 1005.1
20260903080552 68 248 1.0 2.0 0.00 0.00 0.00 74 1005.2
20260903075851 68 248 1.0 2.0 0.00 0.00 0.00 76 1005.3
20260903075150 67 248 1.0 3.0 0.00 0.00 0.00 78 1005.3
20260903074447 66 248 2.0 3.0 0.00 0.00 0.00 81 1005.4
20260903073757 65 248 1.0 2.0 0.00 0.00 0.00 81 1005.4
20260903073055 65 248 1.0 2.0 0.00 0.00 0.00 82 1005.4
20260903072354 66 248 1.0 1.0 0.00 0.00 0.00 82 1005.4
20260903071652 67 248 0.0 5.0 0.00 0.00 0.00 83 1005.5
20260903070951 67 248 2.0 2.0 0.00 0.00 0.00 84 1005.4
20260903070250 64 248 1.0 5.0 0.00 0.00 0.00 83 1005.4
20260903065549 62 248 1.0 2.0 0.00 0.00 0.00 84 1005.5
20260903064848 61 248 0.0 2.0 0.00 0.00 0.00 84 1005.6
20260903064157 60 248 1.0 0.0 0.00 0.00 0.00 84 1005.5
20260903063456 59 248 1.0 2.0 0.00 0.00 0.00 85 1005.5
20260903062753 58 248 1.0 3.0 0.00 0.00 0.00 85 1005.5
20260903062051 57 248 1.0 1.0 0.00 0.00 0.00 85 1005.6
20260903061348 57 248 1.0 2.0 0.00 0.00 0.00 86 1005.8
20260903060647 56 248 0.0 0.0 0.00 0.00 0.00 86 1005.6
20260903055957 56 248 0.0 2.0 0.00 0.00 0.00 86 1005.6
20260903055255 55 248 0.0 2.0 0.00 0.00 0.00 85 1005.6
20260903054554 55 248 0.0 1.0 0.00 0.00 0.00 85 1005.7
20260903053851 55 248 1.0 2.0 0.00 0.00 0.00 85 1005.8
20260903053149 55 248 1.0 3.0 0.00 0.00 0.00 85 1005.7
20260903052448 54 248 0.0 1.0 0.00 0.00 0.00 86 1005.8
20260903051757 54 248 1.0 2.0 0.00 0.00 0.00 86 1005.8
20260903051055 54 248 1.0 2.0 0.00 0.00 0.00 86 1005.8
20260903050352 53 248 1.0 1.0 0.00 0.00 0.00 86 1005.8
20260903045650 53 248 1.0 2.0 0.00 0.00 0.00 86 1005.9
20260903044949 53 248 0.0 0.0 0.00 0.00 0.00 86 1005.9
20260903044246 53 248 0.0 0.0 0.00 0.00 0.00 86 1005.9
20260903043557 53 248 0.0 1.0 0.00 0.00 0.00 86 1005.9
20260903042856 53 248 1.0 2.0 0.00 0.00 0.00 86 1005.9
20260903042154 52 248 0.0 0.0 0.00 0.00 0.00 86 1005.9
20260903041618 52 248 0.0 0.0 0.00 0.00 0.00 86 1005.9
20260903041452 52 248 0.0 1.0 0.00 0.00 0.00 86 1005.8
20260903040752 52 248 0.0 2.0 0.00 0.00 0.00 86 1005.9
20260903040516 52 248 0.0 0.0 0.00 0.00 0.00 86 1005.9
20260903040050 52 248 0.0 2.0 0.00 0.00 0.00 85 1005.9
20260903035426 52 248 0.0 1.0 0.00 0.00 0.00 85 1005.9
20260903035349 52 248 0.0 1.0 0.00 0.00 0.00 85 1005.9
20260903034647 52 248 0.0 1.0 0.00 0.00 0.00 85 1005.9
20260903034322 52 248 1.0 2.0 0.00 0.00 0.00 85 1006.0
20260903033957 52 248 0.0 1.0 0.00 0.00 0.00 85 1005.9
20260903033254 52 248 0.0 1.0 0.00 0.00 0.00 85 1005.9
20260903033218 52 248 0.0 0.0 0.00 0.00 0.00 85 1005.9
20260903032551 51 248 0.0 0.0 0.00 0.00 0.00 85 1006.0
20260903031849 51 248 0.0 0.0 0.00 0.00 0.00 85 1006.3
20260903031146 51 248 0.0 0.0 0.00 0.00 0.00 85 1006.4
20260903031023 51 248 0.0 0.0 0.00 0.00 0.00 85 1006.3
20260903030456 51 248 0.0 1.0 0.00 0.00 0.00 85 1006.3
20260903025919 50 248 0.0 1.0 0.00 0.00 0.00 85 1006.3
20260903025754 50 248 0.0 1.0 0.00 0.00 0.00 85 1006.3
20260903025051 50 248 0.0 0.0 0.00 0.00 0.00 85 1006.2
20260903024816 50 248 0.0 1.0 0.00 0.00 0.00 85 1006.1
20260903024349 50 248 1.0 1.0 0.00 0.00 0.00 85 1006.1
20260903023723 50 248 0.0 1.0 0.00 0.00 0.00 85 1006.2
20260903023646 50 248 0.0 1.0 0.00 0.00 0.00 85 1006.2
20260903023007 50 248 1.0 2.0 0.00 0.00 0.00 85 1006.0
20260903022618 50 248 0.0 0.0 0.00 0.00 0.00 85 1006.1
20260903022253 50 248 0.0 1.0 0.00 0.00 0.00 85 1006.1
20260903021552 50 248 0.0 0.0 0.00 0.00 0.00 85 1006.4
20260903021517 50 248 0.0 1.0 0.00 0.00 0.00 85 1006.4
20260903020850 49 248 0.0 1.0 0.00 0.00 0.00 85 1006.4
20260903020541 49 248 0.0 0.0 0.00 0.00 0.00 85 1006.4
20260903020146 49 248 0.0 1.0 0.00 0.00 0.00 85 1006.4
20260903015457 49 248 0.0 0.0 0.00 0.00 0.00 85 1006.3
20260903015322 49 248 0.0 0.0 0.00 0.00 0.00 85 1006.3
20260903014757 49 248 1.0 2.0 0.00 0.00 0.00 85 1006.2
20260903014218 49 248 1.0 2.0 0.00 0.00 0.00 85 1006.3
20260903014053 49 248 1.0 2.0 0.00 0.00 0.00 85 1006.3
20260903013351 49 248 1.0 1.0 0.00 0.00 0.00 85 1006.4
20260903013126 49 248 1.0 2.0 0.00 0.00 0.00 85 1006.5
20260903012648 49 248 0.0 1.0 0.00 0.00 0.00 85 1006.6
20260903012025 49 248 1.0 1.0 0.00 0.00 0.00 85 1006.6
20260903011948 49 248 1.0 1.0 0.00 0.00 0.00 85 1006.6
20260903011246 48 248 1.0 2.0 0.00 0.00 0.00 85 1006.6
20260903010923 48 248 1.0 1.0 0.00 0.00 0.00 85 1006.5
20260903010558 47 248 0.0 1.0 0.00 0.00 0.00 85 1006.5
20260903005856 47 248 0.0 0.0 0.00 0.00 0.00 85 1006.6
20260903005821 47 248 0.0 0.0 0.00 0.00 0.00 85 1006.5
20260903005153 47 248 0.0 0.0 0.00 0.00 0.00 85 1006.5
20260903004717 48 248 0.0 1.0 0.00 0.00 0.00 85 1006.5
20260903004452 48 248 0.0 1.0 0.00 0.00 0.00 85 1006.4
20260903003751 48 248 0.0 0.0 0.00 0.00 0.00 85 1006.4
20260903003628 48 248 0.0 0.0 0.00 0.00 0.00 85 1006.4
20260903003047 48 248 0.0 0.0 0.00 0.00 0.00 85 1006.5
20260903002522 48 248 0.0 0.0 0.00 0.00 0.00 85 1006.6
20260903002357 48 248 0.0 0.0 0.00 0.00 0.00 85 1006.6
20260903001655 49 248 0.0 1.0 0.00 0.00 0.00 85 1006.6
20260903001420 49 248 0.0 0.0 0.00 0.00 0.00 85 1006.6
20260903000953 49 248 0.0 0.0 0.00 0.00 0.00 85 1006.6
20260903000250 49 248 1.0 2.0 0.00 0.00 0.00 85 1006.6
20260902235549 49 248 0.0 2.0 0.00 0.00 0.00 85 1006.6
20260902235226 49 248 0.0 0.0 0.00 0.00 0.00 85 1006.5
20260902234848 49 248 0.0 0.0 0.00 0.00 0.00 85 1006.5
20260902234125 49 248 0.0 1.0 0.00 0.00 0.00 85 1006.6
20260902233446 49 248 0.0 1.0 0.00 0.00 0.00 85 1006.7
20260902233022 49 248 0.0 0.0 0.00 0.00 0.00 85 1006.8
20260902232756 49 248 0.0 0.0 0.00 0.00 0.00 85 1006.8
20260902232055 49 248 0.0 0.0 0.00 0.00 0.00 85 1006.8
20260902231920 49 248 0.0 1.0 0.00 0.00 0.00 85 1006.7
20260902231353 49 248 0.0 0.0 0.00 0.00 0.00 84 1006.7
20260902230817 49 248 0.0 1.0 0.00 0.00 0.00 84 1006.7
20260902230652 49 248 0.0 1.0 0.00 0.00 0.00 84 1006.8
20260902225950 49 248 0.0 0.0 0.00 0.00 0.00 84 1006.7
20260902225727 49 248 0.0 0.0 0.00 0.00 0.00 84 1006.7
20260902225248 49 248 0.0 0.0 0.00 0.00 0.00 84 1006.7
20260902224557 49 248 0.0 0.0 0.00 0.00 0.00 84 1006.7
20260902223854 49 248 0.0 0.0 0.00 0.00 0.00 84 1006.6
20260902223518 49 248 0.0 0.0 0.00 0.00 0.00 84 1006.7
20260902223152 49 248 0.0 0.0 0.00 0.00 0.00 84 1006.9
20260902222451 49 248 0.0 0.0 0.00 0.00 0.00 84 1006.9
20260902222416 49 248 0.0 0.0 0.00 0.00 0.00 84 1006.9
20260902221750 49 248 0.0 0.0 0.00 0.00 0.00 84 1006.8
20260902221329 49 248 0.0 0.0 0.00 0.00 0.00 84 1006.8
20260902221049 49 248 0.0 0.0 0.00 0.00 0.00 84 1006.8
20260902220348 49 248 0.0 0.0 0.00 0.00 0.00 84 1006.7
20260902220225 49 248 0.0 0.0 0.00 0.00 0.00 84 1006.8
20260902215646 49 248 0.0 1.0 0.00 0.00 0.00 84 1006.8
20260902215120 49 248 0.0 1.0 0.00 0.00 0.00 84 1006.7
20260902214955 49 248 0.0 1.0 0.00 0.00 0.00 84 1006.8
20260902214254 49 248 0.0 0.0 0.00 0.00 0.00 84 1006.7
20260902214017 49 248 0.0 0.0 0.00 0.00 0.00 84 1006.7
20260902213550 50 248 0.0 0.0 0.00 0.00 0.00 84 1006.6
20260902212925 49 248 0.0 0.0 0.00 0.00 0.00 84 1006.7
20260902212848 49 248 0.0 0.0 0.00 0.00 0.00 84 1006.7
20260902212147 49 248 0.0 0.0 0.00 0.00 0.00 84 1006.7
20260902211824 50 248 0.0 0.0 0.00 0.00 0.00 84 1006.8
20260902211458 50 248 0.0 0.0 0.00 0.00 0.00 84 1006.8
20260902210756 50 248 0.0 0.0 0.00 0.00 0.00 84 1006.8
20260902210721 50 248 0.0 0.0 0.00 0.00 0.00 84 1006.9
20260902210052 50 248 0.0 0.0 0.00 0.00 0.00 84 1006.8
20260902205617 50 248 0.0 0.0 0.00 0.00 0.00 84 1006.7
20260902205350 50 248 0.0 0.0 0.00 0.00 0.00 84 1006.9
20260902204649 50 248 0.0 0.0 0.00 0.00 0.00 84 1006.7
20260902204541 50 248 0.0 0.0 0.00 0.00 0.00 84 1006.8
20260902203947 50 248 0.0 0.0 0.00 0.00 0.00 85 1006.8
20260902203423 50 248 0.0 0.0 0.00 0.00 0.00 85 1006.7
20260902203246 51 248 0.0 0.0 0.00 0.00 0.00 85 1006.7
20260902202557 51 248 0.0 0.0 0.00 0.00 0.00 85 1006.7
20260902202322 51 248 0.0 0.0 0.00 0.00 0.00 85 1006.7
20260902201856 51 248 0.0 0.0 0.00 0.00 0.00 85 1006.7
20260902201154 51 248 1.0 1.0 0.00 0.00 0.00 85 1006.7
20260902200451 51 248 0.0 0.0 0.00 0.00 0.00 85 1006.7
20260902200115 50 248 0.0 0.0 0.00 0.00 0.00 85 1006.7
20260902195750 50 248 0.0 0.0 0.00 0.00 0.00 85 1006.6
20260902195047 50 248 0.0 1.0 0.00 0.00 0.00 85 1006.8
20260902195024 50 248 0.0 1.0 0.00 0.00 0.00 85 1006.9
20260902194358 50 248 1.0 1.0 0.00 0.00 0.00 85 1006.9
20260902193922 50 248 0.0 0.0 0.00 0.00 0.00 85 1007.0
20260902193709 50 248 0.0 1.0 0.00 0.00 0.00 85 1007.0
20260902192956 50 248 0.0 0.0 0.00 0.00 0.00 85 1007.0
20260902192821 50 248 0.0 0.0 0.00 0.00 0.00 85 1007.0
20260902192255 51 248 0.0 0.0 0.00 0.00 0.00 85 1007.0
20260902191908 51 248 0.0 0.0 0.00 0.00 0.00 85 1007.0
20260902191552 51 248 0.0 0.0 0.00 0.00 0.00 85 1007.0
20260902190849 51 248 0.0 0.0 0.00 0.00 0.00 85 1007.0
20260902190627 51 248 0.0 0.0 0.00 0.00 0.00 85 1006.9
20260902190148 51 248 0.0 0.0 0.00 0.00 0.00 85 1006.8
20260902185457 51 248 0.0 0.0 0.00 0.00 0.00 85 1006.9
20260902184756 51 248 0.0 0.0 0.00 0.00 0.00 85 1007.0
20260902184419 52 248 0.0 0.0 0.00 0.00 0.00 85 1007.0
20260902184054 52 248 0.0 0.0 0.00 0.00 0.00 85 1006.9
20260902183353 52 248 0.0 0.0 0.00 0.00 0.00 85 1007.0
20260902183318 52 248 0.0 0.0 0.00 0.00 0.00 85 1007.0
20260902182652 52 248 0.0 0.0 0.00 0.00 0.00 85 1007.0
20260902182216 52 248 0.0 0.0 0.00 0.00 0.00 85 1007.0
20260902181950 52 248 0.0 0.0 0.00 0.00 0.00 85 1007.0
20260902181249 52 248 0.0 0.0 0.00 0.00 0.00 85 1007.0
20260902181127 52 248 0.0 0.0 0.00 0.00 0.00 85 1007.0
20260902180548 52 248 0.0 0.0 0.00 0.00 0.00 85 1006.9
20260902180025 52 248 0.0 0.0 0.00 0.00 0.00 85 1006.9
20260902175846 52 248 0.0 0.0 0.00 0.00 0.00 85 1006.9
20260902175156 53 248 0.0 0.0 0.00 0.00 0.00 85 1006.9
20260902174920 53 248 0.0 0.0 0.00 0.00 0.00 85 1007.0
20260902174454 53 248 0.0 0.0 0.00 0.00 0.00 85 1006.8
20260902173752 53 248 0.0 0.0 0.00 0.00 0.00 85 1006.9
20260902173050 53 248 0.0 0.0 0.00 0.00 0.00 85 1006.9
20260902172347 53 248 0.0 0.0 0.00 0.00 0.00 85 1006.8
20260902171656 53 248 0.0 0.0 0.00 0.00 0.00 84 1006.8
20260902171621 53 248 0.0 0.0 0.00 0.00 0.00 84 1006.7
20260902170955 54 248 0.0 0.0 0.00 0.00 0.00 84 1006.7
20260902170519 54 248 0.0 0.0 0.00 0.00 0.00 84 1006.8
20260902170253 54 248 0.0 0.0 0.00 0.00 0.00 84 1006.7
20260902165551 55 248 0.0 0.0 0.00 0.00 0.00 84 1006.7
20260902165419 55 248 0.0 0.0 0.00 0.00 0.00 84 1006.7
20260902164848 55 248 0.0 0.0 0.00 0.00 0.00 84 1006.8
20260902164325 55 248 0.0 0.0 0.00 0.00 0.00 83 1006.9
20260902164147 55 248 0.0 0.0 0.00 0.00 0.00 83 1006.9
20260902163447 55 248 0.0 0.0 0.00 0.00 0.00 83 1006.9
20260902163222 56 248 0.0 0.0 0.00 0.00 0.00 83 1006.9
20260902162756 56 248 0.0 0.0 0.00 0.00 0.00 83 1006.9
20260902162053 56 248 0.0 0.0 0.00 0.00 0.00 82 1006.9
20260902161351 56 248 0.0 0.0 0.00 0.00 0.00 82 1007.0
20260902161016 57 248 0.0 0.0 0.00 0.00 0.00 81 1007.0
20260902160649 57 248 0.0 0.0 0.00 0.00 0.00 81 1006.9
20260902155947 57 248 0.0 0.0 0.00 0.00 0.00 81 1006.9
20260902155923 57 248 0.0 0.0 0.00 0.00 0.00 81 1006.9
20260902155256 58 248 0.0 0.0 0.00 0.00 0.00 80 1006.9
20260902154820 58 248 0.0 0.0 0.00 0.00 0.00 80 1007.0
20260902154554 58 248 0.0 0.0 0.00 0.00 0.00 79 1007.0
20260902153851 58 248 0.0 0.0 0.00 0.00 0.00 79 1007.0
20260902153715 58 248 0.0 1.0 0.00 0.00 0.00 79 1007.0
20260902153148 58 248 0.0 1.0 0.00 0.00 0.00 79 1006.9
20260902152910 59 248 0.0 1.0 0.00 0.00 0.00 78 1007.0
20260902152446 59 248 0.0 0.0 0.00 0.00 0.00 78 1006.8
20260902151757 59 248 0.0 1.0 0.00 0.00 0.00 77 1006.9
20260902151522 59 248 1.0 1.0 0.00 0.00 0.00 77 1006.9
20260902151055 60 248 0.0 1.0 0.00 0.00 0.00 76 1006.9
20260902150353 60 248 1.0 3.0 0.00 0.00 0.00 76 1006.9
20260902145650 60 248 1.0 2.0 0.00 0.00 0.00 75 1006.8
20260902145326 60 248 1.0 3.0 0.00 0.00 0.00 75 1006.9
20260902144948 60 248 0.0 1.0 0.00 0.00 0.00 75 1006.8
20260902144246 60 248 1.0 1.0 0.00 0.00 0.00 74 1007.0
20260902144223 60 248 0.0 5.0 0.00 0.00 0.00 74 1007.0
20260902143556 61 248 0.0 1.0 0.00 0.00 0.00 74 1007.1
20260902143121 61 248 1.0 3.0 0.00 0.00 0.00 73 1006.9
20260902142855 61 248 1.0 3.0 0.00 0.00 0.00 72 1006.9
20260902142154 61 248 2.0 2.0 0.00 0.00 0.00 72 1007.0
20260902142019 61 248 1.0 6.0 0.00 0.00 0.00 72 1007.0